Regional Weather Roundup
Issued by NWS Little Rock, AR

Home | Current Version | Previous Version | Text Only | Print | Product List | Glossary Off
Versions: 1 2 3 4 5 6 7 8 9 10 11 12 13 14 15 16 17 18 19 20 21 22 23 24 25 26 27 28 29 30 31 32 33 34 35 36 37 38 39 40 41 42 43 44 45 46 47 48 49 50

651
ASUS44 KLZK 212105
RWRLZK

WEATHER ROUNDUP FOR ARKANSAS
NATIONAL WEATHER SERVICE LITTLE ROCK AR
300 PM CST SUN JAN 21 2018

NOTE: "FAIR" INDICATES FEW OR NO CLOUDS BELOW 12,000 FEET WITH NO
SIGNIFICANT WEATHER AND/OR OBSTRUCTIONS TO VISIBILITY.

ARZ001-003-010-029-212200-
NORTHWEST ARKANSAS

CITY           SKY/WX    TMP DP  RH WIND       PRES   REMARKS
FAYETTEVILLE   PTSUNNY   67  57  70 S17G25    29.77F
FORT SMITH     PTSUNNY   74  57  55 S17G28    29.76F
HARRISON       PTSUNNY   62  59  90 S12       29.83F
BENTONVILLE    PTSUNNY   67  55  65 S13G23    29.77
ROGERS         CLOUDY    68  55  63 S17G29    29.76F
SILOAM SPGS    PTSUNNY   69  56  62 S16G22    29.75F
HIGHFILL       CLOUDY    68  55  63 S21G26    29.75F
SPRINGDALE     PTSUNNY   68  55  64 S16G29    29.78F
$$

ARZ004-005-016-212200-
NORTH CENTRAL ARKANSAS

CITY           SKY/WX    TMP DP  RH WIND       PRES   REMARKS
BATESVILLE     CLOUDY    60  56  86 S10       29.93S
FLIPPIN        CLOUDY    66  56  70 S12       29.84F
MTN HOME       CLOUDY    64  57  78 S9G17     29.83F
$$

ARZ040-041-212200-
WEST CENTRAL ARKANSAS

CITY           SKY/WX    TMP DP  RH WIND       PRES   REMARKS
MENA           PTSUNNY   68  66  94 S7G17     29.83F
MOUNT IDA      PTSUNNY   68  60  75 S8        29.84F
$$

ARZ009-017-025-026-028-212200-
NORTHEAST ARKANSAS

CITY           SKY/WX    TMP DP  RH WIND       PRES   REMARKS
JONESBORO      CLOUDY    64  58  80 S13       29.94F
NEWPORT        FAIR      61  56  83 S13       29.93F
WALNUT RIDGE   CLOUDY    59  55  87 S14       29.93F
BLYTHEVILLE    CLOUDY    63  63 100 SW17      29.97F
$$

ARZ022-023-033-042-044-212200-
CENTRAL ARKANSAS

CITY           SKY/WX    TMP DP  RH WIND       PRES   REMARKS
LITTLE ROCK    CLOUDY    66  59  78 S15       29.92F
N LITTLE ROCK    N/A     63  59  85 S9        29.86F
JACKSONVILLE   CLOUDY    64  58  83 SE8       29.91F
SEARCY         CLOUDY    62  60  93 S12       29.94
HOT SPRINGS    CLOUDY    67  61  81 S8        29.90F
RUSSELLVILLE   CLOUDY    65  60  84 S7        29.85F
CLINTON        CLOUDY    64  59  82 S9G15     29.89F
$$

ARZ036-212200-
EAST ARKANSAS

CITY           SKY/WX    TMP DP  RH WIND       PRES   REMARKS
WEST MEMPHIS   CLOUDY    64  59  83 S16G26    29.98F
$$

ARZ050-053-066-070-073-212200-
SOUTHWEST ARKANSAS

CITY           SKY/WX    TMP DP  RH WIND       PRES   REMARKS
ARKADELPHIA    CLOUDY    68  60  75 S15       29.91F
CAMDEN         CLOUDY    68  57  68 SE14G20   29.93F
TEXARKANA      CLOUDY    68  60  75 S9        29.88F
EL DORADO        N/A     68  61  78 SE15      29.93F
DE QUEEN       PTSUNNY   69  62  78 S15G21    29.82F
$$

ARZ056-057-069-212200-
SOUTHEAST ARKANSAS

CITY           SKY/WX    TMP DP  RH WIND       PRES   REMARKS
PINE BLUFF     PTSUNNY   69  58  67 S15       29.94F
STUTTGART      FAIR      65  58  78 S17G24    29.94F
MONTICELLO     FAIR      70  57  63 S9G22     29.97F

$$






USA.gov is the U.S. government's official web portal to all federal, state and local government web resources and services.